Regional Weather Roundup
Issued by NWS Little Rock, AR

Home | Current Version | Previous Version | Graphics & Text | Print | Product List | Glossary On
Versions: 1 2 3 4 5 6 7 8 9 10 11 12 13 14 15 16 17 18 19 20 21 22 23 24 25 26 27 28 29 30 31 32
000
ASUS44 KLZK 291805
RWRLZK

WEATHER ROUNDUP FOR ARKANSAS
NATIONAL WEATHER SERVICE LITTLE ROCK AR
100 PM CDT WED MAR 29 2017

NOTE: "FAIR" INDICATES FEW OR NO CLOUDS BELOW 12,000 FEET WITH NO
SIGNIFICANT WEATHER AND/OR OBSTRUCTIONS TO VISIBILITY.

ARZ001-003-010-029-291900-
NORTHWEST ARKANSAS

CITY           SKY/WX    TMP DP  RH WIND       PRES   REMARKS
FAYETTEVILLE   CLOUDY    70  57  63 S20G30    29.71F
6HR MIN TEMP:  60; 6HR MAX TEMP:  72; 6HR PCP:  0.05;

FORT SMITH     PTSUNNY   74  54  49 S21G35    29.73R
6HR MIN TEMP:  60; 6HR MAX TEMP:  75; 6HR PCP:  0.26;

HARRISON       MOSUNNY   69  61  75 SE20G26   29.75F
6HR MIN TEMP:  53; 6HR MAX TEMP:  67; 6HR PCP:  0.11;

BENTONVILLE    MOSUNNY   73  55  53 S18G26    29.71F
6HR MIN TEMP:  57; 6HR MAX TEMP:  73; 6HR PCP:  0.07;

ROGERS         MOSUNNY   74  57  55 S23G30    29.70F
6HR MIN TEMP:  57; 6HR MAX TEMP:  74; 6HR PCP:  0.24;

SILOAM SPGS    CLOUDY    70  55  60 S17G30    29.70S
6HR MIN TEMP:  61; 6HR MAX TEMP:  72; 6HR PCP:  0.19;

HIGHFILL       CLOUDY    72  56  57 S22G29    29.69F
6HR MIN TEMP:  59; 6HR MAX TEMP:  74; 6HR PCP:  0.11;

SPRINGDALE     SUNNY     72  55  56 S17G32    29.71F
$$

ARZ004-005-016-291900-
NORTH CENTRAL ARKANSAS

CITY           SKY/WX    TMP DP  RH WIND       PRES   REMARKS
BATESVILLE     CLOUDY    73  63  68 SE8       29.84F
6HR MIN TEMP:  55; 6HR MAX TEMP:  73;

FLIPPIN        CLOUDY    70  57  64 SE13      29.77F
6HR MIN TEMP:  55; 6HR MAX TEMP:  70; 6HR PCP:  0.03;

MTN HOME       MOSUNNY   69  59  70 S12G22    29.80S
6HR MIN TEMP:  55; 6HR MAX TEMP:  69; 6HR PCP: TRACE;

$$

ARZ040-041-291900-
WEST CENTRAL ARKANSAS

CITY           SKY/WX    TMP DP  RH WIND       PRES   REMARKS
MENA           CLOUDY    72  63  73 SE10G17   29.77R
MOUNT IDA      PTSUNNY   73  60  63 S9G18     29.76F
6HR MIN TEMP:  64; 6HR MAX TEMP:  73; 6HR PCP:  0.30;

$$

ARZ009-017-025-026-028-291900-
NORTHEAST ARKANSAS

CITY           SKY/WX    TMP DP  RH WIND       PRES   REMARKS
CORNING        FAIR      72  64  78 SE13      29.90F
JONESBORO      PTSUNNY   75  64  68 S18G24    29.89F
6HR MIN TEMP:  56; 6HR MAX TEMP:  75;

NEWPORT        MOSUNNY   77  65  66 SE21      29.85F
6HR MIN TEMP:  57; 6HR MAX TEMP:  77;

WALNUT RIDGE   CLOUDY    73  63  68 SE14      29.88F
6HR MIN TEMP:  57; 6HR MAX TEMP:  73;

BLYTHEVILLE    CLOUDY    76  63  64 SE10      29.92F
6HR MIN TEMP:  57; 6HR MAX TEMP:  76;

NW BLYTHEVILLE PTSUNNY   77  63  61 S13G21    29.90F
$$

ARZ022-023-033-042-044-291900-
CENTRAL ARKANSAS

CITY           SKY/WX    TMP DP  RH WIND       PRES   REMARKS
LITTLE ROCK    CLOUDY    78  61  55 S20       29.81F
6HR MIN TEMP:  57; 6HR MAX TEMP:  78; 6HR PCP: TRACE;

JACKSONVILLE   CLOUDY    77  64  63 SE13G21   29.80F
6HR MIN TEMP:  58; 6HR MAX TEMP:  77;

CONWAY           N/A     75  64  69 SE13G21   29.77F
SEARCY         PTSUNNY   78  66  66 SE16      29.82F
6HR MIN TEMP:  58; 6HR MAX TEMP:  78;

HOT SPRINGS    PTSUNNY   72  60  66 S12G21    29.81R
6HR MIN TEMP:  62; 6HR MAX TEMP:  73; 6HR PCP:  0.11;

RUSSELLVILLE   CLOUDY    72  63  73 S7        29.79S
6HR MIN TEMP:  58; 6HR MAX TEMP:  72;

$$

ARZ036-291900-
EAST ARKANSAS

CITY           SKY/WX    TMP DP  RH WIND       PRES   REMARKS
WEST MEMPHIS   MOSUNNY   77  62  59 S18G26    29.90F
6HR MIN TEMP:  61; 6HR MAX TEMP:  79;

$$

ARZ050-053-066-070-073-291900-
SOUTHWEST ARKANSAS

CITY           SKY/WX    TMP DP  RH WIND       PRES   REMARKS
ARKADELPHIA    FAIR      74  64  71 SE9G17    29.79F
6HR MIN TEMP:  62; 6HR MAX TEMP:  74; 6HR PCP:  0.05;

CAMDEN         CLOUDY    77  63  61 S14G22    29.80F
TEXARKANA      CLOUDY    73  63  70 S16G29    29.80S
6HR MIN TEMP:  61; 6HR MAX TEMP:  73; 6HR PCP:  0.08;

EL DORADO      CLOUDY    77  63  61 SE20G29   29.81F
6HR MIN TEMP:  65; 6HR MAX TEMP:  77; 6HR PCP:  0.06;

DE QUEEN       CLOUDY    71  63  75 SE10G24   29.75F
6HR MIN TEMP:  60; 6HR MAX TEMP:  71; 6HR PCP:  0.11;

$$

ARZ056-057-069-291900-
SOUTHEAST ARKANSAS

CITY           SKY/WX    TMP DP  RH WIND       PRES   REMARKS
PINE BLUFF     CLOUDY    76  63  64 SE20      29.83F
6HR MIN TEMP:  61; 6HR MAX TEMP:  76;

STUTTGART      CLOUDY    79  57  47 S20G25    29.85F
6HR MIN TEMP:  63; 6HR MAX TEMP:  79;

MONTICELLO     CLOUDY    78  60  53 S14G24    29.87F

$$






USA.gov is the U.S. government's official web portal to all federal, state and local government web resources and services.